Погода в Брагансе

Португалия     41°48′04″N   6°45′52″W
темп.,
°C
ветер,
м/с
пор.,
м/с
влажн.,
%
обл.,
%
осадки,
мм/ч
давл.,
гПа
погр.,
м
25 февраля, чт
чт2500:00+7юв229399 0.9 102633
03:00+8юв1295100 1.5 102572
06:00+6юв1296100 2.4 102631
09:00+8вюв1390100 0.3 1027255
12:00+10юв2280100 0.4 1028601
15:00+11ююз0179100 1.6 1027522
18:00+9св239098 2.6 102761
21:00+7св31090100 0.1 1029286
26 февраля, пт
пт2600:00+7св51386100 0.1 1029456
03:00+7всв41389100 0.0 1029386
06:00+6всв41292100 0.0 1030395
09:00+8всв41084100 0.0 1030521
12:00+13всв576491 0.0 1029832
15:00+15всв465668 0.0 10271228
18:00+11всв367084 0.0 1027141
21:00+8св3777100 0.0 1029158
27 февраля, сб
сб2700:00+6всв31088100 0.0 1030373
03:00+5св3119364 0.0 1030387
06:00+5св4129258 0.0 1029418
09:00+8всв5117768 0.0 1029615
12:00+12всв696384 0.0 1028803
15:00+13всв685674 0.0 1025901
18:00+9всв4115787 0.0 1025430
21:00+6св4136798 0.0 1027440
28 февраля, вс
вс2800:00+4св4137768 0.0 1027412
03:00+3св4117831 0.0 1026374
06:00+3всв267920 0.0 1025210
09:00+6всв38716 0.0 1025432
12:00+11в57583 0.0 1022830
15:00+13в565770 0.0 10191042
18:00+9ссв367283 0.0 1019129
21:00+6св368011 0.0 1021143
1 марта, пн
пн100:00+5св22835 0.0 102124
03:00+4св22850 0.0 102023
06:00+3св129116 0.0 102122
09:00+7св257824 0.0 1021335
12:00+12всв455935 0.0 1020938
15:00+12всв466583 0.1 1019974
18:00+8св388580 0.3 1020269
21:00+7ссв239152 0.0 102341